When you browse on this site, cookies collect data to enhance your experience and personalize the content and advertising you see.
Visit our Privacy Policy to learn more. By continuing to use the site, you agree to this use of cookies and data.
  • Em Portugal
  • Lista de países
  • Para 7 dias
  • Temperatura da água
  • Mapa do tempo
  • Widgets de tempo
  • user-avatar
    Iniciar Sessão

    Previsão horária em Moron de la Frontera

    Hoje, 14 Novembro, Quinta-feira

    Tempo Temperatura Precipitação Vento Pressão Humidade
    00:00 +13°C° 0 mm 4 m/s 744 mmHg 87%
    01:00 +12°C° 0 mm 3 m/s 744 mmHg 88%
    02:00 +11°C° 0 mm 3 m/s 743 mmHg 90%
    03:00 +11°C° 0 mm 3 m/s 743 mmHg 91%
    04:00 +10°C° 0 mm 3 m/s 742 mmHg 92%
    05:00 +10°C° 0 mm 3 m/s 742 mmHg 93%
    06:00 +9°C° 0 mm 3 m/s 742 mmHg 92%
    07:00 +10°C° 0 mm 4 m/s 742 mmHg 86%
    08:00 +10°C° 0 mm 5 m/s 742 mmHg 80%
    09:00 +13°C° 0 mm 6 m/s 741 mmHg 74%
    10:00 +12°C° 0.2 mm 7 m/s 741 mmHg 74%
    11:00 +12°C° 0.2 mm 8 m/s 741 mmHg 74%
    12:00 +12°C° 0.2 mm 8 m/s 740 mmHg 75%
    13:00 +13°C° 0.5 mm 8 m/s 740 mmHg 66%
    14:00 +13°C° 0.5 mm 8 m/s 739 mmHg 58%
    15:00 +14°C° 0.5 mm 7 m/s 739 mmHg 50%
    16:00 +13°C° 0 mm 6 m/s 739 mmHg 52%
    17:00 +12°C° 0 mm 5 m/s 739 mmHg 54%
    18:00 +10°C° 0 mm 5 m/s 739 mmHg 56%
    19:00 +10°C° 0 mm 5 m/s 740 mmHg 60%
    20:00 +9°C° 0 mm 5 m/s 740 mmHg 63%
    21:00 +9°C° 0 mm 5 m/s 740 mmHg 67%
    22:00 +8°C° 0 mm 4 m/s 740 mmHg 70%
    23:00 +8°C° 0 mm 4 m/s 740 mmHg 73%

    Amanhã, 15 Novembro, Sexta-feira

    Tempo Temperatura Precipitação Vento Pressão Humidade
    00:00 +8°C° 0 mm 4 m/s 740 mmHg 76%
    01:00 +7°C° 0 mm 4 m/s 740 mmHg 76%
    02:00 +7°C° 0 mm 4 m/s 740 mmHg 77%
    03:00 +7°C° 0 mm 4 m/s 739 mmHg 78%
    04:00 +7°C° 0 mm 4 m/s 739 mmHg 78%
    05:00 +8°C° 0 mm 3 m/s 739 mmHg 79%
    06:00 +8°C° 0 mm 3 m/s 739 mmHg 80%
    07:00 +8°C° 0 mm 3 m/s 739 mmHg 75%
    08:00 +8°C° 0 mm 4 m/s 739 mmHg 70%
    09:00 +8°C° 0 mm 4 m/s 740 mmHg 65%
    10:00 +10°C° 0 mm 4 m/s 739 mmHg 58%
    11:00 +10°C° 0 mm 5 m/s 739 mmHg 50%
    12:00 +12°C° 0 mm 5 m/s 739 mmHg 42%
    13:00 +12°C° 0 mm 5 m/s 738 mmHg 40%
    14:00 +13°C° 0 mm 4 m/s 738 mmHg 38%
    15:00 +13°C° 0 mm 4 m/s 738 mmHg 35%
    16:00 +12°C° 0 mm 4 m/s 738 mmHg 39%
    17:00 +11°C° 0 mm 3 m/s 738 mmHg 43%
    18:00 +10°C° 0 mm 2 m/s 738 mmHg 47%
    19:00 +10°C° 0 mm 2 m/s 739 mmHg 49%
    20:00 +9°C° 0 mm 2 m/s 739 mmHg 52%
    21:00 +8°C° 0 mm 2 m/s 740 mmHg 54%
    22:00 +8°C° 0 mm 2 m/s 740 mmHg 57%
    23:00 +7°C° 0 mm 2 m/s 740 mmHg 59%

    Depois de amanhã, 16 Novembro, Sábado

    Tempo Temperatura Precipitação Vento Pressão Humidade
    00:00 +7°C° 0 mm 1 m/s 740 mmHg 62%
    01:00 +7°C° 0 mm 1 m/s 740 mmHg 64%
    02:00 +6°C° 0 mm 1 m/s 740 mmHg 66%
    03:00 +6°C° 0 mm 1 m/s 740 mmHg 68%
    04:00 +6°C° 0 mm 1 m/s 740 mmHg 69%
    05:00 +5°C° 0 mm 1 m/s 741 mmHg 70%
    06:00 +5°C° 0 mm 1 m/s 741 mmHg 72%
    07:00 +6°C° 0 mm 1 m/s 742 mmHg 68%
    08:00 +7°C° 0 mm 1 m/s 743 mmHg 64%
    09:00 +8°C° 0 mm 1 m/s 744 mmHg 61%
    10:00 +9°C° 0 mm 1 m/s 744 mmHg 56%
    11:00 +11°C° 0 mm 1 m/s 744 mmHg 51%
    12:00 +12°C° 0 mm 2 m/s 744 mmHg 46%
    13:00 +13°C° 0 mm 2 m/s 744 mmHg 44%
    14:00 +13°C° 0 mm 2 m/s 744 mmHg 41%
    15:00 +14°C° 0 mm 2 m/s 744 mmHg 39%
    16:00 +13°C° 0 mm 2 m/s 744 mmHg 42%
    17:00 +10°C° 0 mm 2 m/s 745 mmHg 46%
    18:00 +9°C° 0 mm 2 m/s 745 mmHg 50%
    19:00 +9°C° 0 mm 2 m/s 745 mmHg 52%
    20:00 +9°C° 0 mm 1 m/s 746 mmHg 53%
    21:00 +9°C° 0 mm 1 m/s 746 mmHg 55%
    22:00 +9°C° 0 mm 1 m/s 746 mmHg 56%
    23:00 +8°C° 0 mm 1 m/s 746 mmHg 57%

    17 Novembro, Domingo

    Tempo Temperatura Precipitação Vento Pressão Humidade
    00:00 +8°C° 0 mm 1 m/s 746 mmHg 58%
    01:00 +8°C° 0 mm 1 m/s 746 mmHg 59%
    02:00 +6°C° 0 mm 2 m/s 746 mmHg 60%
    03:00 +6°C° 0 mm 2 m/s 746 mmHg 61%
    04:00 +6°C° 0 mm 2 m/s 746 mmHg 63%
    05:00 +5°C° 0 mm 2 m/s 746 mmHg 64%
    06:00 +5°C° 0 mm 2 m/s 746 mmHg 66%
    07:00 +6°C° 0 mm 2 m/s 746 mmHg 66%
    08:00 +7°C° 0 mm 2 m/s 746 mmHg 67%
    09:00 +8°C° 0 mm 3 m/s 746 mmHg 67%
    10:00 +9°C° 0.4 mm 3 m/s 746 mmHg 74%
    11:00 +9°C° 0.4 mm 3 m/s 746 mmHg 80%
    12:00 +9°C° 0.4 mm 3 m/s 746 mmHg 86%
    13:00 +10°C° 1.2 mm 3 m/s 745 mmHg 88%
    14:00 +10°C° 1.2 mm 3 m/s 745 mmHg 90%
    15:00 +11°C° 1.2 mm 3 m/s 744 mmHg 92%
    16:00 +11°C° 0.2 mm 3 m/s 744 mmHg 94%
    17:00 +12°C° 0.2 mm 2 m/s 744 mmHg 96%
    18:00 +12°C° 0.2 mm 2 m/s 744 mmHg 97%
    19:00 +12°C° 0 mm 2 m/s 744 mmHg 96%
    20:00 +10°C° 0 mm 2 m/s 745 mmHg 96%
    21:00 +10°C° 0 mm 2 m/s 745 mmHg 95%
    22:00 +10°C° 0 mm 2 m/s 745 mmHg 94%
    23:00 +10°C° 0 mm 2 m/s 745 mmHg 94%

    18 Novembro, Segunda-feira

    Tempo Temperatura Precipitação Vento Pressão Humidade
    00:00 +10°C° 0 mm 2 m/s 745 mmHg 94%
    01:00 +10°C° 0 mm 2 m/s 745 mmHg 93%
    02:00 +10°C° 0 mm 2 m/s 744 mmHg 93%
    03:00 +10°C° 0 mm 2 m/s 744 mmHg 93%
    04:00 +10°C° 0.1 mm 2 m/s 744 mmHg 93%
    05:00 +10°C° 0.1 mm 2 m/s 745 mmHg 94%
    06:00 +11°C° 0.1 mm 1 m/s 745 mmHg 94%
    07:00 +12°C° 0 mm 1 m/s 745 mmHg 93%
    08:00 +12°C° 0 mm 1 m/s 745 mmHg 92%
    09:00 +13°C° 0 mm 1 m/s 745 mmHg 91%
    10:00 +14°C° 0 mm 2 m/s 745 mmHg 84%
    11:00 +15°C° 0 mm 2 m/s 745 mmHg 78%
    12:00 +16°C° 0 mm 3 m/s 745 mmHg 72%
    13:00 +16°C° 0 mm 3 m/s 745 mmHg 66%
    14:00 +17°C° 0 mm 3 m/s 744 mmHg 59%
    15:00 +17°C° 0 mm 3 m/s 744 mmHg 52%
    16:00 +16°C° 0 mm 2 m/s 745 mmHg 55%
    17:00 +14°C° 0 mm 2 m/s 745 mmHg 57%
    18:00 +13°C° 0 mm 1 m/s 745 mmHg 59%
    19:00 +12°C° 0 mm 1 m/s 746 mmHg 61%
    20:00 +11°C° 0 mm 1 m/s 746 mmHg 62%
    21:00 +11°C° 0 mm 1 m/s 746 mmHg 64%
    22:00 +10°C° 0 mm 1 m/s 746 mmHg 65%
    23:00 +10°C° 0 mm 1 m/s 746 mmHg 66%

    19 Novembro, Terça-feira

    Tempo Temperatura Precipitação Vento Pressão Humidade
    00:00 +10°C° 0 mm 1 m/s 747 mmHg 66%
    01:00 +9°C° 0 mm 1 m/s 746 mmHg 66%
    02:00 +9°C° 0 mm 1 m/s 746 mmHg 66%
    03:00 +9°C° 0 mm 1 m/s 746 mmHg 66%
    04:00 +9°C° 0 mm 1 m/s 746 mmHg 65%
    05:00 +9°C° 0 mm 1 m/s 746 mmHg 64%
    06:00 +9°C° 0 mm 1 m/s 746 mmHg 62%
    07:00 +10°C° 0 mm 1 m/s 746 mmHg 60%
    08:00 +11°C° 0 mm 1 m/s 747 mmHg 58%
    09:00 +12°C° 0 mm 1 m/s 747 mmHg 56%
    10:00 +13°C° 0 mm 1 m/s 747 mmHg 55%
    11:00 +15°C° 0 mm 1 m/s 746 mmHg 53%
    12:00 +16°C° 0 mm 1 m/s 746 mmHg 51%
    13:00 +16°C° 0 mm 1 m/s 746 mmHg 55%
    14:00 +15°C° 0 mm 1 m/s 745 mmHg 58%
    15:00 +15°C° 0 mm 1 m/s 745 mmHg 61%
    16:00 +15°C° 0 mm 1 m/s 745 mmHg 66%
    17:00 +14°C° 0 mm 2 m/s 745 mmHg 71%
    18:00 +14°C° 0 mm 2 m/s 745 mmHg 76%
    19:00 +14°C° 0 mm 2 m/s 745 mmHg 79%
    20:00 +13°C° 0 mm 2 m/s 745 mmHg 83%
    21:00 +12°C° 0 mm 3 m/s 745 mmHg 86%
    22:00 +12°C° 0 mm 3 m/s 745 mmHg 87%
    23:00 +13°C° 0 mm 2 m/s 745 mmHg 88%
    Mostrar mais